Wind_Speed
43 44 44 43 42 40 39 38 37 36 36 35 35 34 33 33 33 34 34 34 35 36 36 37 38 39 40 41 42 42 43 44 45 46 47 48 48 48 48 48 48 47 47
44 44 44 43 42 40 40 39 39 38 37 37 36 36 35 35 36 36 37 37 38 39 39 39 40 41 42 43 44 45 46 47 48 49 50 50 50 49 51 51 51 50 50
44 44 44 43 42 42 41 41 40 40 39 38 38 38 38 38 38 38 39 39 40 40 41 42 43 44 45 45 46 47 48 49 50 50 52 52 52 52 52 53 53 53 53
43 43 44 44 43 43 42 42 42 42 41 40 40 40 39 40 40 40 40 40 41 42 43 44 45 46 47 47 48 49 50 50 50 51 52 54 54 55 55 54 55 56 56
43 43 43 43 43 43 43 43 43 42 42 41 41 41 41 41 41 41 41 42 43 43 44 45 46 47 48 48 49 50 50 50 51 52 53 55 56 57 58 58 58 58 58
43 43 42 42 42 43 43 43 43 42 42 42 41 41 41 42 42 42 43 43 44 45 45 46 47 47 47 48 48 48 49 50 51 53 54 55 57 58 59 60 60 60 60
43 44 43 42 42 42 42 42 42 42 42 42 42 41 42 42 43 43 44 44 45 46 46 47 47 47 46 47 47 47 48 50 51 52 54 56 57 59 60 61 61 61 60
42 43 44 44 43 43 43 42 42 42 42 42 41 41 42 42 43 44 45 45 45 45 46 46 46 46 46 45 45 46 47 48 49 51 53 54 55 56 57 58 59 60 59
41 42 43 43 43 42 42 42 42 42 42 42 42 42 43 43 44 44 44 44 44 44 44 44 45 45 44 44 44 44 46 47 49 50 51 51 52 54 55 55 56 56 55
40 40 42 42 42 42 42 41 41 42 42 42 43 43 43 43 43 43 43 43 43 43 43 43 43 42 42 42 43 44 45 46 47 48 48 48 49 50 51 51 52 52 51
39 39 39 40 40 40 41 41 41 41 41 42 42 42 42 42 42 42 41 41 41 41 41 41 40 40 41 41 42 43 43 44 44 44 44 45 47 47 47 47 46 46 46
38 38 38 38 39 39 40 40 40 40 40 40 40 40 40 40 39 39 39 39 39 39 39 39 39 39 39 39 40 41 41 41 40 40 41 42 42 42 42 42 42 41 40
36 37 37 37 37 37 38 38 38 38 38 37 37 37 37 36 37 37 37 37 37 37 37 37 37 37 37 38 39 38 38 37 37 37 37 38 38 38 37 37 36 35 35
33 34 35 35 36 36 36 36 36 35 35 34 34 34 34 34 34 35 35 35 35 35 35 35 35 36 36 37 37 36 35 35 34 35 35 35 35 34 33 33 32 30 29
29 31 32 32 33 33 33 32 32 32 32 32 32 32 32 32 32 32 32 32 33 33 33 33 34 34 35 35 35 34 34 33 33 33 32 32 31 30 30 29 28 26 25
27 27 28 28 28 28 28 28 28 28 28 28 29 29 29 29 29 29 29 30 30 31 31 31 32 32 33 33 33 32 31 31 30 30 29 29 28 28 27 26 25 24 24
25 25 25 25 25 25 25 25 25 25 26 26 27 27 27 27 27 27 27 27 28 29 29 30 30 30 31 31 30 30 29 28 28 27 28 27 27 27 26 26 26 25 25
23 23 23 23 23 23 23 23 23 24 24 24 25 24 23 23 24 24 24 25 26 27 27 28 28 28 29 28 28 28 27 27 27 27 27 27 27 27 26 26 26 26 26
22 22 22 22 22 22 22 22 22 22 22 22 21 21 21 21 21 22 22 23 24 25 25 26 27 27 27 27 27 27 26 26 27 27 27 27 27 27 27 28 28 28 28
21 22 22 22 21 21 21 21 21 20 20 20 20 19 20 20 20 21 22 23 23 24 24 25 25 26 26 26 26 26 26 27 27 28 28 28 28 29 29 30 30 31 32
21 22 22 22 21 21 20 20 20 20 19 19 19 19 19 19 20 20 21 22 23 23 24 24 25 25 25 26 26 27 27 28 28 29 29 30 30 31 31 32 33 34 35
21 22 22 22 21 21 21 20 19 19 19 19 19 19 19 19 20 20 21 22 23 24 24 24 25 25 26 26 27 27 28 29 30 30 31 32 33 33 34 35 35 36 37
22 22 23 23 22 22 21 21 20 20 20 20 20 20 20 20 21 21 22 22 23 24 25 25 26 26 27 28 28 29 30 31 31 32 33 34 34 35 36 37 38 39 40
22 23 24 24 23 23 23 22 22 21 21 21 21 21 21 21 22 23 23 24 24 25 26 26 27 27 28 29 30 30 31 32 33 34 34 35 36 37 38 39 41 42 43
22 23 24 25 25 25 24 24 23 23 23 22 22 22 23 23 23 24 25 25 26 27 27 27 28 29 29 30 31 31 32 33 34 35 36 37 38 39 40 41 43 44 46
25 25 25 25 25 26 26 26 25 25 25 24 24 24 25 25 25 26 26 27 28 28 28 29 29 30 31 31 32 33 33 34 35 36 37 38 39 40 42 43 45 47 48
Wind_Direction
228 229 232 236 239 240 241 242 244 247 250 254 257 260 263 266 270 272 275 277 279 281 283 285 287 288 289 289 289 290 290 289 289 288 288 287 286 286 284 282 281 279 277
230 230 232 235 238 241 242 244 245 247 250 253 257 261 264 268 271 274 276 278 280 282 284 285 286 287 288 288 289 289 289 289 289 289 288 287 287 288 286 284 283 281 279
232 231 233 234 237 240 243 245 247 249 252 254 258 261 265 268 271 273 274 276 278 281 283 285 286 287 288 289 289 290 289 289 289 289 289 289 289 287 286 286 285 283 281
234 234 234 235 237 240 243 246 248 252 255 257 260 262 265 268 270 272 274 275 277 279 281 283 285 286 287 288 289 289 289 289 289 289 290 290 290 289 288 286 285 283 281
235 236 236 236 238 241 243 246 249 253 256 259 261 264 266 268 270 272 273 275 276 278 280 282 284 285 286 287 288 289 289 290 291 291 291 290 290 289 289 287 285 282 280
236 237 238 238 239 241 244 247 249 252 256 259 261 264 266 269 270 272 274 275 276 278 279 281 283 284 286 287 288 288 289 290 291 292 292 291 291 290 289 288 286 283 280
236 238 238 239 239 241 243 246 249 252 255 258 261 264 266 268 270 272 274 275 276 278 280 281 283 284 285 287 287 288 290 291 292 293 293 292 292 291 289 288 286 283 280
236 237 238 239 240 241 243 246 249 252 254 258 261 264 266 268 269 271 273 274 276 278 280 281 283 284 286 287 288 290 291 293 294 295 295 294 293 292 290 289 287 284 281
235 236 237 239 240 242 243 246 248 251 255 258 261 264 266 268 269 270 272 274 276 278 280 282 283 284 285 287 288 290 292 294 295 296 296 296 296 295 293 291 289 286 282
233 234 236 237 239 241 243 246 249 252 256 259 261 263 265 267 268 270 272 274 276 278 280 282 283 284 286 287 289 291 293 295 297 297 298 299 300 298 296 295 291 287 284
231 232 234 236 239 241 244 247 250 253 256 259 261 263 265 267 269 271 273 275 277 279 280 280 282 284 286 288 291 293 295 297 298 300 301 302 303 302 300 299 295 290 286
232 233 235 237 240 243 246 249 252 255 257 259 261 264 266 268 270 271 273 275 277 278 279 280 282 284 287 290 293 296 297 298 300 303 304 306 308 308 306 303 299 293 288
235 237 239 241 244 247 249 251 254 256 258 261 263 265 267 269 271 273 274 275 277 278 280 281 283 286 288 292 296 298 299 300 301 304 307 310 311 311 310 308 305 299 292
239 240 243 245 247 249 251 253 255 257 259 262 264 266 268 270 272 273 274 276 278 279 281 283 285 287 290 294 297 298 299 301 302 305 308 311 313 313 313 312 310 306 301
241 242 244 246 248 250 252 253 255 257 260 262 264 266 268 270 272 274 275 277 279 280 282 285 287 289 292 294 297 298 300 301 303 305 308 311 314 315 315 315 313 311 308
242 243 245 246 247 249 250 252 255 257 259 261 263 266 268 270 273 275 278 279 280 282 284 287 289 291 293 295 297 298 300 301 302 305 307 310 313 315 316 316 315 314 311
240 242 243 244 245 247 248 251 253 255 257 260 263 266 268 271 273 276 279 280 282 284 287 289 291 292 294 296 297 299 300 300 302 305 307 309 311 312 314 315 314 313 311
240 240 241 242 243 245 247 249 251 255 258 261 264 266 268 272 275 277 280 282 284 286 288 290 292 293 295 297 298 299 299 300 303 305 307 309 311 312 313 314 314 312 310
237 238 239 241 242 244 246 249 252 255 258 261 263 265 268 272 276 279 282 284 286 288 290 291 293 295 297 298 298 298 299 301 303 306 307 309 310 311 312 312 311 310 308
237 238 239 239 241 243 246 249 252 255 257 259 262 265 269 273 277 281 283 286 288 290 292 294 295 296 297 298 298 299 301 303 304 306 307 308 310 310 311 310 309 308 307
238 238 238 239 242 244 247 250 253 256 257 260 263 266 270 274 278 281 284 286 289 291 293 295 297 298 299 299 299 300 302 304 306 307 308 309 309 309 309 309 309 308 306
239 238 239 240 243 246 248 250 253 256 258 260 263 267 271 275 279 283 286 288 290 293 295 296 297 298 299 299 300 302 304 306 307 308 308 308 309 309 309 309 308 308 307
242 241 242 244 245 247 249 251 253 256 259 262 264 268 271 275 280 283 286 289 291 293 294 295 297 299 300 301 302 303 305 306 307 308 308 308 308 308 308 309 309 308 308
246 246 246 247 248 248 250 252 254 257 260 263 265 268 271 275 279 282 285 288 290 293 294 296 297 299 301 302 303 304 305 306 306 307 308 308 308 309 309 309 310 309 309
249 250 251 251 251 251 251 253 255 258 261 264 266 269 272 275 278 281 284 286 289 291 294 295 297 298 300 301 302 304 305 306 307 307 308 308 309 310 310 310 311 311 311
251 252 253 253 253 253 254 255 257 259 261 264 267 269 272 275 277 280 283 285 287 290 292 294 296 298 299 300 302 303 305 306 307 308 308 309 310 310 311 311 312 312 312
Height
5791 5796 5800 5804 5808 5812 5815 5817 5820 5821 5823 5825 5826 5827 5829 5829 5829 5829 5829 5828 5827 5826 5825 5823 5821 5819 5817 5815 5812 5810 5807 5805 5802 5799 5797 5795 5793 5791 5789 5787 5785 5783 5781
5785 5789 5794 5798 5801 5804 5807 5809 5812 5814 5816 5818 5819 5820 5821 5822 5822 5821 5821 5820 5818 5817 5816 5814 5812 5810 5808 5806 5803 5800 5798 5795 5791 5788 5785 5784 5783 5780 5777 5775 5773 5771 5769
5778 5782 5787 5790 5793 5796 5799 5802 5804 5806 5808 5810 5812 5813 5814 5814 5814 5814 5813 5811 5810 5809 5807 5805 5803 5801 5798 5796 5793 5790 5787 5784 5781 5777 5774 5771 5770 5768 5766 5762 5760 5758 5757
5770 5775 5779 5783 5786 5789 5791 5794 5796 5798 5800 5802 5804 5805 5805 5806 5806 5805 5804 5803 5802 5800 5798 5796 5793 5791 5788 5786 5783 5779 5776 5773 5770 5766 5762 5759 5757 5754 5752 5751 5747 5744 5743
5763 5767 5771 5775 5778 5781 5784 5786 5789 5791 5792 5794 5795 5796 5797 5797 5797 5796 5795 5794 5793 5791 5789 5786 5784 5781 5778 5775 5772 5769 5765 5762 5758 5755 5751 5746 5743 5740 5736 5735 5734 5730 5728
5755 5758 5763 5766 5770 5773 5775 5778 5780 5782 5784 5785 5786 5787 5787 5787 5787 5786 5785 5784 5783 5781 5779 5776 5774 5771 5768 5765 5762 5758 5754 5751 5747 5743 5739 5734 5730 5726 5722 5718 5716 5714 5712
5746 5750 5754 5758 5761 5764 5767 5769 5772 5773 5775 5776 5777 5778 5778 5778 5777 5776 5775 5774 5772 5770 5768 5766 5764 5761 5758 5755 5751 5748 5744 5740 5736 5731 5726 5722 5717 5712 5707 5702 5698 5695 5694
5737 5741 5745 5749 5752 5755 5758 5761 5763 5764 5766 5767 5768 5768 5768 5768 5767 5766 5765 5763 5762 5760 5758 5755 5753 5750 5748 5744 5741 5737 5733 5729 5724 5719 5714 5709 5704 5697 5691 5686 5681 5677 5675
5728 5732 5736 5739 5743 5746 5749 5752 5754 5755 5757 5758 5758 5759 5759 5758 5757 5756 5755 5753 5752 5750 5747 5745 5743 5740 5737 5734 5731 5727 5723 5718 5713 5708 5702 5696 5690 5684 5677 5671 5665 5659 5656
5719 5723 5727 5730 5734 5737 5740 5742 5744 5746 5747 5748 5748 5748 5748 5748 5747 5746 5745 5743 5742 5740 5737 5735 5732 5730 5727 5724 5720 5717 5712 5707 5702 5696 5690 5684 5677 5670 5664 5657 5650 5644 5640
5711 5714 5718 5722 5725 5728 5731 5733 5735 5736 5737 5738 5738 5738 5738 5737 5737 5736 5735 5733 5732 5730 5727 5725 5723 5720 5717 5714 5710 5706 5701 5696 5691 5685 5679 5672 5665 5658 5651 5644 5637 5632 5627
5703 5706 5710 5713 5716 5719 5721 5723 5725 5726 5727 5728 5728 5728 5728 5727 5727 5726 5725 5723 5722 5720 5717 5715 5713 5710 5707 5704 5700 5696 5691 5686 5680 5675 5668 5662 5654 5647 5640 5633 5627 5621 5617
5695 5698 5702 5705 5708 5710 5712 5714 5715 5716 5717 5718 5718 5718 5718 5718 5717 5716 5715 5714 5712 5710 5708 5705 5703 5700 5697 5694 5690 5685 5681 5676 5671 5665 5659 5653 5645 5638 5631 5625 5619 5613 5609
5687 5690 5693 5696 5699 5701 5703 5704 5706 5707 5708 5708 5709 5709 5709 5708 5708 5707 5706 5704 5702 5701 5698 5696 5694 5691 5688 5684 5680 5676 5671 5666 5662 5656 5651 5644 5638 5631 5625 5618 5613 5607 5604
5680 5683 5685 5688 5690 5692 5694 5695 5697 5698 5699 5700 5700 5700 5700 5699 5699 5698 5696 5695 5693 5691 5689 5687 5684 5682 5678 5675 5671 5667 5662 5658 5653 5648 5643 5637 5631 5625 5619 5614 5608 5603 5599
5672 5675 5678 5680 5682 5684 5686 5687 5689 5690 5691 5691 5692 5692 5691 5691 5690 5689 5687 5686 5684 5682 5680 5678 5675 5672 5669 5666 5662 5658 5654 5650 5645 5641 5636 5631 5626 5620 5615 5609 5604 5600 5596
5666 5668 5671 5673 5675 5677 5678 5680 5681 5682 5683 5683 5684 5684 5683 5682 5682 5680 5679 5678 5676 5674 5672 5670 5667 5664 5661 5657 5654 5650 5646 5642 5638 5634 5630 5625 5620 5615 5610 5605 5600 5596 5592
5660 5662 5664 5666 5668 5670 5672 5673 5674 5675 5675 5676 5676 5676 5675 5675 5674 5673 5671 5670 5668 5666 5664 5661 5659 5656 5653 5649 5646 5642 5639 5635 5631 5627 5623 5619 5614 5609 5604 5600 5596 5591 5587
5654 5656 5658 5660 5662 5664 5665 5666 5667 5668 5668 5669 5669 5668 5668 5667 5667 5665 5664 5663 5661 5659 5656 5654 5651 5648 5645 5642 5639 5635 5632 5628 5625 5621 5616 5612 5608 5603 5599 5594 5590 5586 5582
5648 5650 5652 5654 5656 5657 5659 5660 5661 5661 5662 5662 5662 5662 5661 5661 5660 5659 5657 5656 5654 5652 5649 5647 5644 5641 5638 5635 5631 5628 5625 5621 5618 5614 5610 5605 5601 5597 5592 5588 5583 5579 5575
5643 5645 5647 5648 5650 5651 5653 5654 5654 5655 5655 5655 5655 5655 5655 5654 5653 5652 5651 5649 5647 5645 5643 5640 5637 5634 5631 5628 5625 5621 5618 5614 5610 5606 5602 5598 5594 5589 5585 5580 5576 5571 5567
5637 5639 5641 5643 5644 5645 5647 5647 5648 5649 5649 5649 5649 5649 5648 5648 5647 5646 5644 5642 5640 5638 5636 5633 5630 5627 5624 5621 5618 5615 5611 5607 5603 5599 5595 5591 5586 5582 5577 5572 5567 5562 5557
5632 5634 5635 5637 5638 5639 5640 5641 5642 5643 5643 5643 5643 5643 5642 5641 5640 5639 5637 5636 5634 5631 5629 5626 5623 5620 5617 5614 5611 5607 5603 5600 5596 5591 5587 5583 5578 5573 5568 5563 5558 5553 5547
5626 5628 5629 5631 5632 5633 5634 5635 5636 5636 5636 5636 5636 5636 5635 5635 5633 5632 5631 5629 5627 5624 5622 5619 5616 5613 5610 5607 5603 5600 5596 5592 5588 5583 5579 5574 5569 5564 5559 5554 5548 5542 5536
5621 5622 5623 5624 5625 5626 5627 5628 5629 5629 5629 5630 5629 5629 5628 5627 5626 5625 5623 5622 5620 5617 5615 5612 5609 5606 5603 5599 5596 5592 5588 5584 5580 5575 5570 5565 5560 5555 5549 5544 5538 5531 5525
5614 5615 5616 5617 5618 5619 5620 5621 5622 5622 5622 5622 5622 5621 5621 5620 5619 5617 5616 5614 5612 5609 5607 5604 5601 5598 5595 5591 5588 5584 5580 5575 5571 5566 5561 5556 5551 5545 5539 5533 5526 5520 5513